COSMOS 1275 DEB, 12670

Orbit data source: Space-Track

COSMOS 1275 DEB, 12670 is space debris in LEO originally from a launch on Thu, 04 Jun 1981 UTC launched from the Plesetsk Missile And Space Complex (PKMTR). Debris objects in space refer to the collection of defunct objects orbiting the Earth. Examples of debris include non-operational satellites, rocket bodies, and fragments generated from explosions, collisions, or faulty payload assembly.

Loading next visibility...
Identifier
12670, 1981-053AA
Orbit
LEO
Last TLE update
17 hours ago
Origin
Manufacturer
Unknown
Mission
Spacecraft
Bus & Motor
Unknown
Mass
Unknown
Launch date (UTC)
1981-06-04 (44 years ago)
Launch vehicle
Unknown
Launch site
Plesetsk Missile And Space Complex (PKMTR)
Object type
Payload
Rocket body
Debris
Shape & HBR
Unknown
Radar Cross Section
Medium (>0.1 m² and <1 m²)

Expand to show TLE details & history

TLE from 17 hours ago
0 COSMOS 1275 DEB
1 12670U 81053AA  25128.54941036  .00000630  00000-0  57711-3 0  9996
2 12670  82.9392 147.4041 0057589 124.1233 355.2170 13.80732224197925
Epoch: 2025-05-08T13:11Z
Definitive object data (Epoch: 2025-05-08T13:11:09.055Z)
Latitude
60.04366°
Longitude
-109.34637°
Altitude
929.38 km
Speed
7.414 km/s
True Right ascension
21h 00m 14s
True Declination
59° 53' 53"
Sunlit
Object was in daylight at TLE epoch
Visualization TLE readout
Latitude
81.60333°
Longitude
-154.1293°
Altitude
937.228 km
Speed
7.409 km/s
Apparent Right ascension
01h 51m 45s
Apparent Declination
36° 07' 23"
Sunlit
Object is in daylight
Visualization observer readout
Local Sidereal Time
14:36:25
Azimuth
9.25° NNE
Elevation
-13.269°
Doppler factor
1
Orbital elements
Apogee altitude
1,000.682 km
Perigee altitude
916.181 km
Semi-major axis
7,336.569 km
Eccentricity
0.0057589
Inclination
82.9392°
RAAN
147.4041°
Arg. of periapsis
124.1233°
True anomaly
355.16158°
Mean anomaly
355.217°
Eccentric anomaly
355.18933°
Mean motion
3.45385 °/min
BSTAR
0.00057711
Orbital period
104.23 mins
Loading maneuver chart data...
Loading SW <> Apogee altitude chart data...
Loading historical data...
Loading historical data...
Loading historical data...
Loading historical data...
Loading historical data...
Loading historical data...
Loading historical data...

COSMOS 1275 DEB Visibility forecast

Observer location: undefined°, undefined°

Span
Click to sort rows by Start time (UTC) header in descending order
Start Az.
Max El. time (UTC)
Max El. Az.
Max El.
End time (UTC)
End Az.
8 mins2025-05-09 11:48:35.528Z26.289° NE2025-05-09 11:52:35.528Z70.62° E18.749°2025-05-09 11:56:35.528Z114.594° SE
10 mins2025-05-09 13:33:35.528Z340.276° N2025-05-09 13:37:35.528Z285.03° WNW39.125°2025-05-09 13:43:35.528Z192.149° SSW
9 mins2025-05-10 01:15:35.528Z153.337° SSE2025-05-10 01:19:35.528Z92.946° ESE35.123°2025-05-10 01:24:35.528Z23.053° NE
8 mins2025-05-10 03:01:35.528Z244.535° WSW2025-05-10 03:04:35.528Z282.098° WNW23.291°2025-05-10 03:09:35.528Z340.559° N
|